Elmira, NY

5:52 PM EST on November 17, 2019 (GMT -0500)
Elmira-Corning Regional

Weather History for KELM - October, 2019

Change the Weather History Date:

Monday, October 21, 2019

  Actual Average Record
Temperature  
Mean Temperature 52 °F -  
Max Temperature 66 °F 56 °F 84 °F (1947)
Min Temperature 39 °F 33 °F 16 °F (1972)
Degree Days  
Heating Degree Days 12    
Growing Degree Days 2 (Base 50)    
Moisture  
Dew Point 44 °F    
Average Humidity 89    
Maximum Humidity 100    
Minimum Humidity 54    
Precipitation  
Precipitation 0.00 in - - ()
Sea Level Pressure  
Sea Level Pressure 30.06 in    
Wind  
Wind Speed 1 mph (WNW)    
Max Wind Speed 8 mph    
Max Gust Speed -    
Visibility 4 miles    
Events Fog    
Averages and records for this station are not official NWS values.
T = Trace of Precipitation, MM = Missing Value Source: NWS Daily Summary

Daily Weather History Graph

Daily Weather History Graph

Search for Another Location

Airport or City:

Astronomy

Oct. 21, 2019 Rise Set
Actual Time 7:26 AM EDT 6:16 PM EDT
Civil Twilight 6:58 AM EDT 6:45 PM EDT
Nautical Twilight 6:25 AM EDT 7:17 PM EDT
Astronomical Twilight 5:53 AM EDT 7:50 PM EDT
Moon No Moon Rise 2:47 PM EDT (10/21)
Length of Visible Light 11h 46m
Length of Day
10h 49m
Waning Gibbous, 48% of the Moon is Illuminated
Oct 21
Waning Gibbous
Oct 27
New
Nov 4
First Quarter
Nov 12
Full
Nov 19
Last Quarter

Hourly Weather History & Observations

Time (EDT) Temp. Windchill Dew Point Humidity Pressure Visibility Wind Dir Wind Speed Gust Speed Precip Events Conditions
12:06 AM 39.9 °F - 39.0 °F 97% 30.02 in 9.0 mi Calm Calm - N/A   Partly Cloudy
12:19 AM 39.0 °F - 37.9 °F 96% 30.02 in 2.5 mi Calm Calm - N/A   Mostly Cloudy
12:24 AM 39.9 °F - 37.9 °F 93% 30.02 in 0.8 mi Calm Calm - N/A   Mostly Cloudy
12:35 AM 39.0 °F - 37.9 °F 96% 30.03 in 2.0 mi Calm Calm - N/A   Overcast
12:43 AM 39.9 °F - 39.0 °F 97% 30.03 in 0.8 mi Calm Calm - N/A   Mist
12:53 AM 39.0 °F - 39.0 °F 100% 30.04 in 0.2 mi Calm Calm - N/A Fog Fog
1:16 AM 39.0 °F - 37.9 °F 96% 30.03 in 0.2 mi Calm Calm - N/A Fog Fog
1:32 AM 41.0 °F - 39.9 °F 96% 30.04 in 1.2 mi Calm Calm - N/A   Overcast
1:53 AM 41.0 °F - 39.9 °F 96% 30.04 in 0.8 mi Calm Calm - N/A   Mist
1:59 AM 42.1 °F - 41.0 °F 96% 30.03 in 2.5 mi Calm Calm - N/A   Overcast
2:11 AM 41.0 °F - 41.0 °F 100% 30.03 in 0.8 mi Calm Calm - N/A   Mist
2:31 AM 42.1 °F - 42.1 °F 100% 30.04 in 0.2 mi Calm Calm - N/A Fog Fog
2:53 AM 43.0 °F - 43.0 °F 100% 30.05 in 0.2 mi Calm Calm - N/A Fog Fog
3:53 AM 44.1 °F 42.5 °F 44.1 °F 100% 30.05 in 0.2 mi SW 3.5 mph - N/A Fog Fog
4:00 AM 44.1 °F - 44.1 °F 100% 30.05 in 0.5 mi Calm Calm - N/A Fog Fog
4:53 AM 45.0 °F - 45.0 °F 100% 30.06 in 0.2 mi Calm Calm - N/A Fog Fog
5:24 AM 45.0 °F - 45.0 °F 100% 30.06 in 0.5 mi Calm Calm - N/A Fog Fog
5:53 AM 45.0 °F 43.5 °F 45.0 °F 100% 30.09 in 0.5 mi West 3.5 mph - N/A Fog Fog
6:23 AM 45.0 °F 41.8 °F 44.1 °F 97% 30.09 in 0.2 mi West 5.8 mph - N/A Fog Fog
6:53 AM 44.1 °F - 44.1 °F 100% 30.09 in 0.2 mi Calm Calm - N/A Fog Fog
7:53 AM 44.1 °F 42.5 °F 43.0 °F 96% 30.11 in 0.2 mi West 3.5 mph - N/A Fog Fog
8:53 AM 44.1 °F 42.5 °F 43.0 °F 96% 30.14 in 0.2 mi NW 3.5 mph - N/A Fog Fog
9:53 AM 44.1 °F - 44.1 °F 100% 30.13 in 0.2 mi Calm Calm - N/A Fog Fog
10:53 AM 46.0 °F - 46.0 °F 100% 30.14 in 0.5 mi Calm Calm - N/A Fog Fog
11:13 AM 46.9 °F - 46.0 °F 97% 30.12 in 1.2 mi Calm Calm - N/A   Overcast
11:49 AM 48.2 °F - 46.4 °F 93% 30.11 in 3.0 mi Calm Calm - N/A   Overcast
11:50 AM 48.0 °F - 46.9 °F 96% 30.12 in 3.0 mi Calm Calm - N/A   Overcast
12:19 PM 51.1 °F - 48.9 °F 92% 30.11 in 8.0 mi Calm Calm - N/A   Scattered Clouds
12:53 PM 57.9 °F - 50.0 °F 75% 30.10 in 10.0 mi Variable 5.8 mph - N/A   Scattered Clouds
1:53 PM 61.0 °F - 48.0 °F 62% 30.07 in 10.0 mi ENE 3.5 mph - N/A   Clear
3:53 PM 66.0 °F - 48.9 °F 54% 30.02 in 10.0 mi East 8.1 mph - N/A   Clear
4:53 PM 64.9 °F - 48.9 °F 56% 30.01 in 10.0 mi SE 8.1 mph - N/A   Clear
5:53 PM 63.0 °F - 48.9 °F 60% 30.01 in 10.0 mi ESE 5.8 mph - N/A   Clear
6:53 PM 60.1 °F - 46.9 °F 62% 30.03 in 10.0 mi Variable 3.5 mph - N/A   Clear
7:53 PM 55.9 °F - 48.0 °F 75% 30.03 in 10.0 mi Variable 3.5 mph - N/A   Clear
8:53 PM 57.0 °F - 48.0 °F 72% 30.02 in 10.0 mi Variable 3.5 mph - N/A   Clear
9:53 PM 55.0 °F - 48.0 °F 77% 30.01 in 10.0 mi Calm Calm - N/A   Clear
10:53 PM 55.9 °F - 48.9 °F 77% 30.02 in 10.0 mi North 4.6 mph - N/A   Clear
11:53 PM 57.9 °F - 48.9 °F 72% 30.00 in 10.0 mi Variable 3.5 mph - N/A   Clear